Wind_Speed
12 12 12 14 16 20 22 24 26 27 32 24 31 35 40 42 48 51 55 58 62 65 66 66 68 72 71 68 69 73 78 84 88 93 99 104 109 111 115 113 114 116 117 116
15 15 16 19 23 26 27 29 29 31 37 31 35 40 45 50 54 57 60 63 67 69 71 71 73 76 76 74 76 81 85 91 95 100 106 111 113 116 114 115 116 116 116 111
18 20 20 25 31 30 31 32 33 35 38 35 40 46 52 55 60 62 64 67 71 73 74 76 78 80 78 79 83 87 93 97 102 107 111 114 116 115 114 117 117 116 112 103
25 25 24 32 36 36 34 36 36 37 36 39 44 50 57 61 63 66 70 73 74 75 76 79 82 82 81 83 87 93 99 103 108 112 114 115 114 114 115 115 116 112 106 97
28 30 29 35 39 42 41 39 41 38 41 45 51 55 60 63 67 71 75 77 78 77 79 83 84 83 85 87 93 99 103 109 111 114 114 112 113 113 114 113 112 107 101 93
33 31 33 39 44 44 44 42 46 46 49 54 57 60 64 67 71 76 80 81 81 80 85 87 85 86 89 93 98 103 108 111 114 112 110 112 112 112 111 109 107 102 97 90
37 36 38 44 44 46 47 47 49 52 57 60 63 68 71 74 78 82 83 84 82 86 89 88 88 90 94 99 104 109 111 114 114 110 110 112 112 110 110 107 104 97 92 86
42 45 45 47 48 49 48 50 52 56 61 63 68 72 75 79 82 86 85 85 89 90 88 87 90 95 100 106 110 112 114 115 111 108 110 111 111 109 108 105 101 95 88 82
48 50 51 51 53 53 53 55 60 62 65 68 73 76 79 83 86 86 88 91 89 88 90 93 97 102 106 110 113 114 114 110 107 109 110 110 109 106 105 101 96 90 84 77
51 54 55 55 55 57 60 61 65 69 71 75 79 82 85 86 87 88 87 87 91 93 96 99 103 107 111 113 115 111 108 107 108 108 108 108 105 104 101 97 92 85 79 73
50 54 55 58 62 63 65 69 72 76 80 84 87 87 86 86 87 85 88 91 94 99 103 107 111 114 114 116 110 106 107 107 105 106 107 105 103 100 97 92 87 81 74 70
56 60 60 64 67 69 73 77 81 85 88 89 86 86 87 85 88 91 96 98 101 105 109 113 114 115 114 109 106 110 109 104 105 106 106 104 100 97 92 87 81 77 70 67
63 64 66 69 72 76 80 84 87 88 85 84 84 85 87 91 94 99 103 105 108 111 114 117 115 111 107 106 109 108 107 110 110 106 103 98 97 94 87 81 77 72 67 63
69 70 73 77 80 84 88 87 84 83 82 83 86 90 95 99 104 107 110 113 114 115 115 114 110 108 111 111 107 106 108 107 102 101 98 96 94 88 81 76 73 67 65 61
76 77 79 83 85 84 83 82 81 83 86 90 93 98 103 107 110 112 116 118 118 117 115 115 114 114 112 111 111 112 109 102 100 97 96 94 88 82 76 72 68 64 60 58
82 84 85 86 84 81 82 85 89 92 94 97 102 106 107 111 115 118 117 116 114 114 114 115 115 118 118 116 112 105 102 100 96 96 92 87 82 76 71 68 64 60 57 55
87 87 86 84 85 87 90 94 97 100 103 108 110 112 116 119 118 114 114 112 112 114 113 118 120 119 115 106 101 100 98 97 94 90 85 81 76 72 68 64 60 57 55 52
88 86 86 89 93 96 99 102 104 106 110 112 115 117 116 116 114 114 115 116 118 121 119 115 111 105 102 102 100 98 96 90 87 83 80 75 70 69 65 60 57 55 52 49
87 90 94 98 100 103 106 109 111 114 116 117 118 120 116 115 117 119 121 124 125 121 113 105 104 103 100 97 93 92 89 83 81 77 73 70 67 65 61 57 54 52 50 48
94 97 101 104 106 110 112 113 115 118 118 115 117 120 120 119 116 120 119 114 109 105 105 103 100 98 95 91 88 85 79 78 75 71 68 66 63 62 58 54 53 51 49 47
101 104 107 109 111 113 115 118 117 116 116 117 119 122 121 119 116 112 108 109 107 102 98 97 95 91 88 84 82 78 75 72 70 67 65 63 60 57 56 53 51 50 49 47
110 111 113 113 115 117 117 117 116 117 117 118 117 108 102 100 101 102 102 100 97 95 93 90 88 85 81 78 77 73 70 67 66 64 62 58 55 54 52 51 51 50 48 46
115 117 114 113 113 112 114 115 115 112 111 103 102 101 98 97 96 95 94 96 92 89 85 82 79 78 76 73 72 68 66 65 62 60 58 55 53 50 49 49 49 48 46 44
109 110 112 113 114 113 110 105 100 100 101 99 97 96 94 91 90 91 88 84 81 78 76 74 73 71 70 69 68 66 64 61 59 56 54 53 51 50 49 48 47 47 45 43
113 115 113 113 112 106 102 100 96 94 93 91 91 91 90 88 81 77 76 75 75 73 71 69 68 67 66 65 64 61 59 57 55 54 52 51 49 48 47 46 45 44 43 41
117 113 104 102 100 97 94 91 89 87 86 85 85 83 81 79 78 76 74 70 67 66 65 64 63 62 61 60 59 57 56 55 54 52 50 49 48 47 46 46 44 43 41 40
102 99 96 92 90 89 87 85 84 83 80 76 73 74 72 72 72 70 69 68 65 63 62 61 60 58 58 57 57 56 54 53 51 50 48 47 46 45 44 44 43 41 40 39
Wind_Direction
234 247 262 270 271 271 275 277 279 285 289 289 294 302 308 309 315 315 315 315 317 319 319 318 318 320 319 316 316 316 317 318 319 320 320 319 319 320 320 318 319 319 319 320
247 259 268 273 268 267 272 276 280 287 290 297 299 306 307 310 313 314 313 314 315 316 317 317 317 318 318 315 316 317 318 320 321 321 320 320 321 320 319 319 320 320 320 321
258 259 265 279 271 273 277 281 286 288 289 294 299 304 306 308 313 313 313 313 312 314 315 316 316 317 316 316 316 318 319 321 322 321 321 321 320 319 319 319 318 319 321 323
259 262 268 277 283 280 278 282 283 284 291 295 301 303 305 310 311 311 312 312 311 313 314 314 315 316 316 315 316 320 321 321 321 321 321 320 320 319 319 319 320 320 323 324
265 268 271 277 280 283 285 285 283 288 291 296 298 302 306 309 310 310 310 310 311 312 313 312 313 314 314 316 319 321 321 321 321 320 320 320 320 320 319 319 320 322 323 324
264 265 269 276 280 283 285 284 288 290 292 295 297 302 304 307 310 310 311 309 311 311 311 311 313 313 316 318 319 319 320 320 320 320 321 323 321 319 319 320 321 323 324 324
266 267 270 276 283 288 291 288 288 289 290 293 297 300 301 305 307 309 309 310 310 309 309 312 313 315 317 318 318 318 318 319 319 319 321 322 320 319 320 322 323 324 324 324
271 268 271 276 282 290 292 289 287 288 290 293 296 299 303 305 306 308 309 309 308 309 311 313 314 315 316 317 317 318 318 318 318 319 319 320 321 320 321 323 324 324 324 324
275 277 280 283 288 290 290 291 292 293 294 296 299 301 303 304 305 306 308 308 309 311 312 313 314 315 315 316 316 317 318 317 319 319 318 319 319 320 322 323 323 324 323 323
281 284 285 287 286 286 291 293 294 296 297 298 300 302 303 303 304 306 307 308 310 311 312 312 312 313 314 315 316 317 317 318 318 319 319 318 319 321 322 323 323 322 323 322
283 285 284 285 287 292 294 294 295 297 299 299 300 301 302 303 305 306 307 309 309 310 311 312 312 313 314 315 317 317 318 317 317 318 319 318 320 321 322 322 322 322 322 322
282 284 287 288 291 293 295 296 298 299 300 300 302 302 303 303 305 308 310 309 309 309 310 310 312 312 314 316 317 318 317 315 317 318 317 318 319 320 321 321 321 321 321 322
282 284 286 288 291 294 295 296 297 299 301 302 302 302 304 306 307 308 308 308 308 308 309 309 312 315 315 317 317 316 317 317 316 315 316 319 319 320 321 320 320 320 321 322
283 286 288 290 292 295 298 299 300 300 301 302 303 305 306 307 306 307 308 308 307 307 310 313 314 315 316 314 316 315 315 314 314 315 317 318 319 320 320 320 319 319 320 321
285 287 290 292 295 297 297 297 298 300 301 302 303 303 304 305 305 305 306 308 310 311 312 313 314 314 314 315 315 314 314 313 314 317 318 317 318 319 319 319 318 319 319 319
289 291 293 294 295 295 297 298 300 300 301 301 302 303 303 304 305 306 308 309 309 309 310 310 312 313 313 312 312 311 311 313 316 315 315 316 318 318 318 318 317 318 318 317
289 290 291 292 295 297 299 300 300 300 300 302 304 305 305 305 307 309 309 308 309 309 309 310 310 309 309 309 310 311 312 313 312 313 315 316 317 317 318 317 316 317 316 315
289 290 292 294 296 297 298 300 301 301 301 301 303 303 304 306 306 308 309 308 308 308 308 307 307 306 307 309 311 311 310 311 311 314 314 315 316 316 316 316 316 316 314 314
289 292 294 296 296 296 297 299 300 301 302 302 303 303 305 304 304 306 306 306 304 304 304 305 306 308 309 308 308 307 310 311 311 313 314 315 315 314 315 316 316 315 314 314
291 293 294 295 296 297 299 299 298 299 300 301 301 302 303 303 303 303 302 302 301 303 304 306 306 306 307 308 308 309 311 310 311 312 313 313 314 313 315 316 316 315 314 314
290 290 292 294 296 295 295 297 297 298 300 301 303 303 301 301 301 301 300 299 300 302 304 305 306 307 308 309 309 310 310 311 311 311 312 312 313 313 314 315 315 315 315 316
291 292 294 295 295 296 297 296 297 299 298 299 298 298 298 298 297 297 298 300 302 304 306 306 307 307 308 308 308 309 309 310 310 310 311 312 313 314 314 314 314 314 313 314
294 295 295 295 295 295 297 298 299 298 300 300 299 299 299 299 298 298 301 302 304 305 305 305 306 306 307 307 307 308 308 309 309 309 310 312 313 313 313 313 313 312 312 312
292 293 294 295 296 297 299 300 300 300 300 299 299 298 297 298 300 302 302 302 303 303 305 305 305 305 305 305 307 308 309 309 309 310 311 312 313 313 314 314 313 312 311 312
292 293 296 296 297 298 298 298 299 299 300 300 299 300 302 303 303 302 302 303 304 305 305 305 305 305 305 305 306 308 309 310 310 311 312 312 313 312 313 313 313 311 311 311
292 294 296 296 297 297 298 299 299 299 299 300 302 302 303 303 303 303 304 304 304 304 304 304 305 306 306 307 309 310 311 310 311 311 312 312 311 312 312 313 313 312 312 312
294 295 296 297 297 297 298 298 299 300 302 302 302 302 302 302 303 304 305 306 307 307 308 308 309 309 310 310 310 310 310 310 310 310 311 310 310 310 311 311 311 312 312 312
Height
10594 10595 10595 10596 10596 10595 10594 10593 10592 10590 10586 10588 10583 10580 10575 10570 10565 10559 10553 10546 10538 10530 10521 10512 10502 10493 10483 10474 10465 10455 10444 10433 10420 10405 10388 10372 10356 10335 10317 10298 10279 10259 10237 10216
10590 10590 10590 10590 10588 10587 10587 10585 10584 10582 10576 10577 10574 10570 10564 10558 10553 10547 10540 10532 10525 10516 10506 10496 10487 10477 10467 10457 10447 10436 10426 10413 10397 10381 10364 10346 10328 10310 10292 10272 10253 10232 10212 10193
10584 10584 10585 10582 10579 10580 10579 10577 10576 10572 10568 10567 10562 10557 10552 10547 10541 10534 10527 10519 10510 10501 10491 10481 10471 10461 10450 10439 10429 10419 10405 10389 10373 10358 10340 10322 10304 10285 10266 10247 10228 10209 10190 10169
10577 10577 10579 10574 10571 10570 10571 10569 10566 10562 10561 10557 10552 10546 10538 10533 10526 10518 10511 10502 10495 10486 10476 10465 10455 10444 10434 10424 10413 10398 10382 10366 10350 10336 10319 10300 10282 10261 10244 10225 10204 10185 10166 10148
10570 10570 10571 10566 10563 10559 10560 10560 10554 10554 10550 10546 10540 10535 10526 10521 10512 10504 10496 10487 10479 10470 10461 10449 10439 10429 10418 10406 10391 10375 10360 10346 10332 10315 10297 10278 10259 10240 10222 10203 10183 10164 10145 10128
10561 10562 10562 10555 10551 10551 10551 10551 10544 10540 10536 10532 10527 10522 10513 10508 10499 10490 10480 10471 10462 10453 10442 10431 10421 10410 10398 10383 10369 10355 10342 10328 10310 10293 10275 10256 10238 10221 10202 10183 10163 10144 10125 10109
10552 10553 10552 10545 10544 10542 10541 10540 10534 10529 10524 10519 10513 10507 10499 10492 10483 10474 10464 10455 10445 10434 10423 10414 10402 10389 10376 10364 10350 10337 10323 10306 10287 10270 10253 10235 10216 10197 10179 10162 10144 10127 10111 10094
10542 10540 10540 10537 10535 10533 10529 10524 10520 10516 10511 10507 10500 10492 10484 10475 10465 10455 10446 10437 10426 10415 10406 10396 10384 10371 10359 10347 10331 10317 10301 10283 10265 10249 10232 10212 10193 10176 10158 10140 10123 10107 10092 10077
10529 10528 10526 10526 10523 10519 10514 10510 10505 10502 10496 10490 10483 10475 10467 10458 10449 10439 10429 10417 10406 10396 10385 10374 10363 10352 10340 10326 10311 10295 10277 10261 10244 10226 10210 10191 10173 10155 10138 10123 10105 10090 10076 10062
10518 10515 10514 10512 10508 10503 10501 10497 10490 10484 10478 10472 10465 10457 10449 10439 10430 10422 10412 10399 10388 10377 10365 10354 10344 10333 10320 10304 10288 10271 10254 10238 10223 10206 10187 10169 10153 10136 10120 10105 10090 10075 10061 10048
10508 10503 10501 10496 10491 10489 10484 10478 10472 10467 10460 10451 10444 10437 10429 10421 10412 10403 10392 10383 10370 10357 10344 10332 10320 10308 10295 10280 10263 10247 10231 10216 10200 10182 10166 10150 10133 10117 10104 10088 10074 10059 10047 10034
10494 10489 10488 10482 10475 10471 10465 10459 10454 10448 10440 10432 10424 10415 10407 10399 10390 10381 10371 10360 10348 10335 10322 10309 10295 10283 10269 10255 10238 10223 10208 10192 10175 10160 10144 10129 10114 10099 10086 10071 10057 10044 10033 10021
10478 10476 10471 10466 10461 10456 10450 10443 10436 10429 10421 10413 10405 10395 10386 10377 10368 10356 10347 10336 10325 10312 10298 10284 10270 10255 10243 10228 10215 10201 10184 10170 10155 10139 10124 10109 10094 10081 10068 10055 10042 10030 10020 10009
10461 10461 10455 10448 10444 10437 10430 10424 10417 10410 10403 10393 10384 10374 10365 10355 10342 10330 10319 10309 10297 10284 10270 10254 10241 10228 10216 10204 10190 10175 10161 10148 10134 10118 10104 10089 10076 10063 10051 10039 10028 10017 10004 9996
10441 10441 10439 10433 10426 10419 10412 10404 10397 10390 10383 10373 10364 10353 10341 10330 10320 10309 10295 10280 10266 10253 10241 10227 10215 10205 10192 10178 10164 10150 10137 10123 10111 10094 10081 10070 10058 10046 10035 10024 10013 10003 9993 9983
10422 10418 10414 10410 10404 10397 10391 10384 10375 10368 10360 10351 10342 10331 10322 10309 10295 10281 10268 10255 10242 10230 10218 10207 10192 10178 10165 10154 10142 10130 10115 10099 10087 10076 10064 10052 10041 10030 10020 10010 9999 9990 9981 9972
10406 10400 10394 10388 10382 10375 10367 10360 10352 10343 10334 10324 10314 10302 10290 10278 10265 10253 10241 10228 10216 10206 10194 10182 10168 10156 10144 10131 10120 10109 10093 10080 10069 10058 10047 10034 10024 10014 10005 9995 9986 9977 9969 9961
10384 10378 10373 10367 10360 10353 10345 10337 10327 10318 10308 10297 10286 10274 10263 10251 10240 10228 10217 10203 10190 10179 10168 10156 10144 10133 10121 10110 10097 10082 10072 10063 10050 10040 10029 10018 10008 9998 9990 9982 9972 9964 9957 9949
10365 10358 10351 10343 10335 10327 10319 10311 10301 10290 10278 10268 10256 10245 10234 10225 10215 10204 10192 10178 10164 10156 10142 10129 10119 10107 10097 10085 10076 10062 10053 10042 10030 10021 10012 10002 9993 9984 9975 9967 9959 9952 9944 9937
10343 10336 10327 10319 10311 10302 10293 10284 10274 10263 10253 10242 10231 10221 10209 10198 10190 10178 10165 10151 10133 10128 10118 10106 10095 10084 10075 10064 10052 10041 10033 10022 10012 10004 9995 9986 9978 9968 9961 9953 9945 9938 9932 9924
10324 10315 10308 10300 10290 10280 10269 10259 10248 10238 10226 10215 10204 10194 10183 10169 10159 10149 10136 10127 10112 10101 10093 10083 10072 10061 10051 10041 10030 10021 10014 10005 9995 9987 9979 9971 9963 9954 9946 9939 9932 9925 9918 9912
10296 10288 10280 10271 10260 10250 10240 10230 10220 10210 10201 10192 10183 10172 10160 10146 10133 10122 10107 10099 10093 10080 10070 10059 10048 10038 10029 10020 10011 10004 9995 9987 9979 9971 9964 9957 9949 9940 9933 9926 9919 9913 9906 9900
10266 10259 10250 10242 10232 10221 10212 10203 10193 10181 10170 10159 10148 10136 10128 10118 10105 10095 10092 10074 10065 10056 10047 10037 10027 10017 10008 10001 9993 9986 9978 9971 9963 9956 9948 9941 9934 9927 9920 9913 9907 9900 9893 9887
10238 10229 10220 10211 10203 10192 10182 10172 10161 10152 10142 10131 10119 10109 10102 10096 10086 10069 10062 10054 10046 10037 10027 10018 10009 10001 9992 9983 9976 9968 9961 9954 9946 9939 9932 9925 9919 9912 9907 9900 9893 9887 9881 9875
10208 10199 10191 10182 10173 10163 10155 10145 10134 10124 10114 10104 10092 10081 10071 10061 10058 10054 10044 10034 10023 10014 10006 9998 9990 9983 9974 9966 9959 9952 9945 9937 9929 9923 9917 9910 9905 9899 9893 9887 9881 9875 9869 9863
10180 10173 10164 10155 10146 10136 10127 10118 10108 10098 10090 10083 10071 10061 10051 10041 10033 10025 10018 10012 10006 9998 9990 9982 9973 9965 9957 9949 9941 9935 9928 9920 9914 9908 9902 9896 9891 9885 9879 9873 9867 9862 9857 9851
10154 10145 10137 10128 10120 10111 10102 10094 10085 10076 10068 10063 10056 10043 10035 10025 10015 10007 9998 9991 9984 9977 9970 9962 9955 9947 9940 9932 9925 9919 9912 9906 9899 9894 9889 9883 9877 9871 9866 9860 9855 9850 9844 9839